Погода в Родниковом

Россия / Республика Адыгея     44°40′35″N   40°00′30″E
темп.,
°C
ветер,
м/с
пор.,
м/с
влажн.,
%
обл.,
%
осадки,
мм/ч
давл.,
гПа
погр.,
м
17 июня, чт
чт1700:00+19юв33917 0.8 100437
03:00+18зсз359610 3.5 1005116
06:00+19ссз3596100 2.9 1008264
09:00+20зюз51083100 3.3 1010740
12:00+25зюз89526 0.1 10111517
15:00+25зюз912555 0.1 10121116
18:00+22з712640 0.0 1014766
21:00+16зсз22870 0.0 101726
18 июня, пт
пт1800:00+15ю22935 0.0 101713
03:00+14вюв119310 0.0 101712
06:00+16в248961 0.0 1018119
09:00+21всв336717 0.0 1017605
12:00+24св44550 0.0 10161065
15:00+26св45553 0.0 10151512
18:00+25св35660 0.0 1015905
21:00+20всв36900 0.0 1015109
19 июня, сб
сб1900:00+18в37940 0.0 1015122
03:00+17в35940 0.0 1014100
06:00+19всв411890 0.0 1014350
09:00+25в712685 0.0 1013965
12:00+29в9115836 0.0 10111694
15:00+29в912637 0.1 10101658
18:00+28в713655 0.0 10091448
21:00+25в816585 0.0 1010754
20 июня, вс
вс2000:00+22в5116294 0.0 1009366
03:00+20в357192 0.0 1009168
06:00+19юз358368 0.0 1011180
09:00+24з45660 0.0 1011583
12:00+27сз34580 0.0 1011884
15:00+29сз335613 0.0 10101248
18:00+28юз01600 0.0 1010948
21:00+23ююв11800 0.0 101011
21 июня, пн
пн2100:00+21вюв22870 0.0 100911
03:00+20в22920 0.0 100919
06:00+21св12900 0.0 100974
09:00+26ссв12748 0.0 1008563
12:00+29ссв225912 0.0 10081097
15:00+31всв225493 0.0 10081423
18:00+28вюв35703 0.3 1008413
21:00+24вюв22820 0.3 100920